Theta_e
320 321 321 322 322 322 323 323 322 322 319 318 316 315 315 315 312 310 309 307 306 305 304 303 302 301 300 299 299 299 298 298 298 298 298 300 300 301
321 323 323 323 322 323 323 323 321 319 320 317 316 316 313 311 309 308 306 306 305 303 303 302 301 300 299 299 299 298 298 297 297 296 296 296 297 298
321 322 322 322 323 323 323 322 321 319 317 316 315 314 310 307 305 305 305 305 304 304 303 301 300 299 299 298 297 296 295 295 294 293 292 291 291 291
322 322 322 322 322 322 322 321 318 317 316 315 310 309 307 305 303 304 305 305 304 303 302 300 298 297 295 294 293 292 290 287 285 285 285 284 284 287
322 322 322 322 323 322 321 318 317 316 315 313 307 306 304 304 305 304 303 301 301 300 298 297 293 289 288 287 286 286 285 285 285 285 284 284 283 283
322 322 322 323 321 319 318 318 317 312 310 309 306 304 304 303 301 300 300 298 298 297 295 291 290 289 288 288 288 288 288 287 287 286 285 284 283 284
321 322 322 321 318 316 316 316 313 310 307 306 305 303 302 300 300 299 297 297 296 294 292 292 291 291 290 290 289 289 289 287 286 285 284 284 283 285
320 319 318 316 316 319 317 318 315 309 306 305 302 301 300 299 297 296 294 293 293 292 291 291 291 290 289 289 290 289 287 286 286 284 284 284 284 284
319 318 317 317 317 315 310 309 306 305 304 301 299 298 297 296 294 292 291 290 291 291 290 290 289 289 289 289 289 288 287 285 284 284 284 285 285 285
319 318 316 312 308 307 304 302 299 298 296 295 296 294 292 291 290 289 289 290 290 289 288 288 288 288 288 288 288 286 285 285 285 285 285 286 286 286
311 308 306 303 299 299 300 296 293 292 293 292 290 288 287 287 287 287 287 287 288 288 287 287 287 287 287 286 285 286 285 285 285 285 285 285 286 286
297 295 294 295 292 294 295 292 288 285 285 284 284 283 281 281 280 281 284 285 285 286 286 286 285 285 285 285 285 285 284 284 284 285 287 287 286 287
288 287 287 288 288 288 288 288 287 284 283 283 283 283 283 283 283 282 282 282 283 283 284 282 283 282 282 283 283 283 283 284 285 286 287 287 286 287
286 285 284 286 286 286 286 284 283 282 282 283 282 283 283 282 282 282 281 280 280 280 280 279 279 280 280 281 282 282 282 283 283 285 286 287 287 285
285 284 283 284 283 282 282 281 281 282 282 283 282 282 282 281 279 279 279 279 279 279 279 278 278 278 279 280 281 281 282 282 282 283 285 287 287 287
282 281 281 282 280 279 279 280 280 280 280 281 281 281 280 279 279 279 279 279 278 278 278 278 278 278 278 278 279 280 281 282 282 282 285 287 287 287
281 281 281 281 282 282 280 280 279 279 279 279 279 279 278 278 278 278 277 277 277 277 278 278 278 278 278 278 279 280 280 281 282 283 285 286 287 287
282 283 284 284 283 282 282 280 279 278 278 277 277 277 277 276 276 276 276 276 277 277 277 277 277 277 278 278 278 279 280 282 284 284 285 287 287 287
284 284 283 283 281 281 280 278 278 276 275 276 276 275 275 275 274 275 275 275 276 276 276 276 276 276 278 279 278 279 279 278 278 279 281 287 287 287
281 281 280 279 279 278 277 277 276 276 275 274 274 274 273 273 273 273 274 274 274 274 274 274 274 276 276 277 276 275 275 275 277 279 281 285 287 286
279 279 278 278 277 276 275 275 274 274 273 273 273 273 272 272 272 272 272 272 272 272 273 273 274 273 273 274 275 276 277 277 278 279 280 281 287 286
277 276 275 274 274 274 273 273 273 272 272 271 271 270 270 270 270 270 270 271 271 271 271 271 272 272 273 274 275 275 276 277 277 277 279 282 286 287
273 273 273 272 272 271 271 271 270 270 270 269 269 269 269 269 269 269 269 270 270 270 270 271 271 272 272 273 274 275 275 276 277 278 279 283 283 284
Wind_Speed
30 28 26 24 24 23 22 20 18 8 8 12 14 16 17 20 24 25 23 20 21 21 21 21 20 20 20 21 21 23 24 26 27 27 28 27 28 30
30 30 26 26 27 26 23 23 22 21 7 13 14 15 17 18 19 22 15 18 19 19 20 22 22 21 21 21 23 25 26 27 29 29 30 31 30 31
36 33 30 29 28 27 24 25 22 23 14 14 20 21 20 21 19 21 16 17 15 18 19 21 23 23 23 24 25 26 27 29 30 32 33 35 35 34
35 32 32 31 30 26 26 31 29 26 23 18 23 23 25 25 21 16 16 15 15 15 19 19 20 22 23 25 27 29 30 31 31 31 32 33 34 31
35 34 32 30 28 27 33 30 30 31 31 23 19 24 22 22 19 20 17 18 15 18 17 20 22 21 23 25 25 25 25 26 27 24 24 27 32 34
37 36 34 33 33 30 33 36 32 30 27 26 18 20 22 20 21 13 13 14 17 16 15 18 19 20 20 16 18 21 20 21 21 22 26 33 34 33
37 36 38 39 39 41 37 35 35 31 26 25 18 17 18 20 20 14 16 16 15 13 15 15 13 14 15 16 18 19 18 19 24 30 33 33 31 31
33 33 35 40 43 41 45 44 42 33 27 25 21 19 18 19 19 16 12 10 9 12 13 13 13 16 17 16 16 22 25 29 29 33 31 28 29 32
32 34 39 38 37 37 32 31 28 30 30 25 18 12 12 16 15 12 10 8 11 14 12 16 16 19 19 18 19 23 25 29 28 25 25 27 29 34
35 37 37 33 30 29 28 25 21 17 11 9 17 19 14 11 11 9 7 7 10 14 14 15 15 17 18 20 21 25 26 23 23 26 26 28 33 38
26 24 24 22 22 26 26 24 17 13 15 12 7 4 8 13 12 6 5 7 9 13 13 14 15 18 17 21 25 18 14 22 20 24 23 28 33 31
13 11 13 16 22 24 25 22 17 13 7 12 6 7 6 7 7 7 4 7 8 8 3 7 12 12 11 12 14 14 20 20 25 23 22 26 24 19
20 22 23 22 21 20 18 17 16 11 9 9 9 6 3 3 2 2 3 5 8 13 14 8 8 14 16 20 19 19 23 23 20 22 21 22 16 10
26 26 24 24 23 20 19 17 12 13 7 7 3 3 3 2 4 5 6 9 11 15 16 16 14 16 20 22 21 20 21 21 22 25 24 18 15 15
30 28 26 23 22 19 17 18 10 10 6 4 3 1 2 3 6 8 9 10 13 16 17 17 19 21 21 23 24 23 24 23 23 27 26 19 15 11
33 27 24 19 16 20 16 13 9 6 4 0 1 3 4 5 7 9 11 12 14 17 15 17 19 20 22 23 23 26 22 19 23 28 26 22 16 14
31 24 18 14 12 11 10 8 6 4 3 3 4 5 6 8 10 11 12 13 15 18 19 17 17 19 22 26 25 25 27 26 26 27 27 24 20 18
19 15 12 11 10 8 8 6 4 4 3 4 5 6 8 9 11 12 14 15 17 18 18 19 19 20 22 24 24 28 26 24 22 23 27 25 18 18
15 13 12 11 10 9 8 6 5 3 4 3 5 7 9 11 13 15 16 16 17 18 19 20 19 20 12 12 22 21 19 21 27 30 28 24 19 16
15 14 12 11 9 8 6 5 4 4 5 6 8 9 10 12 14 16 17 17 18 19 21 22 22 21 17 13 22 30 29 28 27 28 28 25 18 13
14 14 12 11 9 7 6 4 4 4 6 7 9 10 11 14 16 16 18 18 18 20 21 21 22 25 26 27 24 27 26 22 25 28 26 29 14 13
14 13 11 9 7 6 4 5 6 7 9 10 11 12 13 13 15 15 16 18 19 20 22 23 23 24 23 23 24 27 28 26 28 30 28 26 7 7
11 9 7 6 5 5 5 6 7 8 9 10 11 11 12 13 14 14 15 17 18 19 21 22 22 22 23 25 26 27 28 27 26 27 29 14 10 13
Wind_Direction
244 243 233 240 245 246 245 234 240 246 244 246 230 245 230 225 226 226 230 237 234 233 238 247 251 255 261 264 264 266 269 272 274 277 279 282 283 283
235 234 235 240 247 247 242 229 229 228 246 249 238 226 215 219 218 225 211 223 233 236 245 250 253 255 260 265 271 272 273 275 277 279 280 281 284 285
236 238 242 245 246 247 237 236 226 225 236 248 235 216 223 209 209 209 210 230 239 251 253 251 254 257 262 268 271 273 275 277 279 280 282 282 282 286
238 239 242 244 247 245 236 229 226 225 226 239 222 209 211 210 211 213 214 228 238 253 240 248 262 267 267 268 270 272 275 277 278 280 282 286 286 290
240 241 244 241 236 229 232 229 229 237 235 229 215 207 205 205 203 207 214 244 241 246 248 264 272 269 266 268 269 271 274 278 284 286 290 294 296 294
243 243 239 229 229 227 233 237 239 232 223 216 203 196 193 194 204 208 221 229 227 237 247 254 261 271 278 285 287 289 293 298 292 294 299 298 296 294
242 240 235 237 243 252 243 241 231 222 212 203 192 184 187 184 197 200 216 227 230 244 256 258 257 264 272 281 286 294 295 290 295 296 297 301 296 296
237 241 244 244 253 258 241 243 237 215 205 199 191 188 189 188 192 198 195 218 239 251 247 252 257 270 274 276 273 276 282 286 291 299 301 299 295 298
231 236 245 250 249 245 234 224 217 214 208 188 178 166 181 189 176 185 199 226 249 255 271 268 270 277 281 280 278 284 286 291 296 299 300 302 304 303
240 244 244 243 235 229 209 191 175 170 151 146 163 162 163 180 199 192 214 241 254 262 264 266 270 272 278 278 277 283 290 287 291 294 296 298 304 304
227 228 230 223 210 198 183 158 141 136 145 156 137 129 180 185 187 186 208 233 252 263 265 273 273 281 288 289 283 278 280 293 297 302 292 299 303 301
186 186 196 190 165 168 160 152 127 123 117 123 131 190 221 227 221 192 216 248 262 284 316 265 280 301 293 272 280 285 296 296 295 294 293 293 305 297
132 123 124 126 121 120 123 119 121 121 122 119 129 160 174 211 268 295 251 269 267 260 276 330 283 285 282 287 282 289 293 293 296 295 293 289 284 269
129 128 120 117 115 110 106 107 112 127 128 110 123 170 194 241 276 285 282 271 266 269 278 288 279 281 286 286 286 294 292 293 293 290 288 277 259 253
131 127 121 120 114 112 123 142 132 106 104 123 151 213 288 297 304 290 283 281 282 280 279 275 271 275 274 277 284 288 293 293 287 279 279 270 244 232
118 112 109 108 111 115 110 95 99 97 97 40 319 312 307 311 295 293 295 296 296 293 285 278 273 272 276 276 280 284 284 281 285 286 285 280 236 234
122 117 112 112 116 114 107 107 102 97 62 18 358 334 318 307 301 303 299 296 293 295 295 293 289 284 278 278 279 278 283 281 279 277 275 270 233 230
114 118 118 113 113 121 121 113 97 75 51 11 336 320 309 308 307 306 301 293 290 294 296 297 298 297 293 284 273 273 274 282 295 295 273 256 237 228
98 99 98 98 101 97 87 73 62 47 358 340 326 321 316 314 312 306 302 298 296 299 301 304 304 299 292 285 293 293 321 315 308 306 303 246 226 228
86 89 89 88 84 84 83 72 47 20 352 344 326 317 313 309 309 307 307 308 307 307 305 299 291 288 312 312 307 300 292 288 283 285 287 281 208 217
82 81 79 80 74 67 59 43 12 344 328 315 315 316 322 317 311 310 309 308 308 298 297 301 305 309 305 298 286 286 290 287 288 286 290 299 186 182
71 75 74 69 59 50 23 353 333 330 328 325 323 321 318 316 313 311 310 309 306 304 302 304 306 305 301 294 292 294 297 301 299 297 287 272 226 186
63 66 63 53 28 12 356 348 340 333 330 324 321 320 322 317 311 307 307 307 306 305 304 304 304 305 303 300 298 297 297 299 303 309 308 208 135 124